This demonstration page uses our WeatherBlox Daily Observations layout. Learn more.

Left ArrowRight Arrow

44.31136, -96.79839

Hourly Observations for August 26, 2017

Temp ( °F °C ) Dew Point ( °F °C ) Humidity (%) Winds ( mph kmh ) Pressure ( in mb ) Visibility ( mi km ) Precip ( " mm )
12:56 am 00:56 Cloudy 63 17.2 62 16.7 97 97 SSE 14 22 30.02 1017 N/A 0.00 0.03
1:56 am 01:56 Cloudy with Light Rain 63 17.2 62 16.7 97 97 S 12 19 30.04 1017 N/A 0.00 0.03
2:16 am 02:16 Cloudy with Nearby Thunderstorms 63 17 63 17 100 100 S 12 19 30.00 1016 N/A 0.00 0.03
2:25 am 02:25 Cloudy with Light Rain 63 17 63 17 100 100 SSE 16 26 29.97 1015 N/A 0.00 0.03
2:35 am 02:35 Cloudy with Nearby Thunderstorms 63 17 63 17 100 100 SSE 17 28 29.97 1015 N/A 0.00 0.03
2:45 am 02:45 Cloudy with Light Rain 64 18 63 17 94 94 S 14 22 30.00 1016 N/A 0.00 0.03
2:52 am 02:52 Cloudy with Thunderstorms 63 17 63 17 100 100 S 13 20 30.00 1016 N/A 0.01 0.25
2:56 am 02:56 Cloudy with Thunderstorms 63 17.2 62 16.7 97 97 S 13 20 30.03 1017 N/A 0.01 0.25
3:07 am 03:07 Cloudy with Nearby Thunderstorms 63 17 63 17 100 100 S 10 17 30.00 1016 N/A 0.00 0.03
3:32 am 03:32 Cloudy with Nearby Thunderstorms 63 17 63 17 100 100 S 13 20 29.97 1015 N/A 0.08 2.03
3:46 am 03:46 Cloudy 63 17 63 17 100 100 SSE 13 20 29.97 1015 N/A 0.08 2.03
3:56 am 03:56 Cloudy 63 17.2 62 16.7 97 97 S 12 19 30.02 1017 N/A 0.08 2.03
4:38 am 04:38 Cloudy 63 17 63 17 100 100 S 14 22 29.97 1015 N/A 0.01 0.25
4:56 am 04:56 Cloudy 63 17.2 62 16.7 97 97 S 10 17 30.02 1017 N/A 0.01 0.25
5:56 am 05:56 Cloudy 64 17.8 62 16.7 93 93 S 10 17 30.02 1017 N/A 0.00 0.00
6:56 am 06:56 Cloudy 63 17.2 62 16.7 97 97 S 6 9 30.04 1017 N/A 0.00 0.00
7:14 am 07:14 Cloudy 63 17 63 17 100 100 Calm 30.00 1016 N/A 0.00 0.00
7:52 am 07:52 Cloudy 64 18 63 17 94 94 Calm 30.00 1016 N/A 0.00 0.00
7:56 am 07:56 Cloudy 64 17.8 62 16.7 93 93 Calm 30.05 1018 N/A 0.00 0.00
8:56 am 08:56 Cloudy 65 18.3 63 17.2 93 93 SSW 5 7 30.07 1018 N/A 0.00 0.00
9:56 am 09:56 Cloudy 67 19.4 64 17.8 91 91 WSW 12 19 30.06 1018 N/A 0.00 0.00
10:38 am 10:38 Cloudy 66 19 64 18 94 94 W 9 15 30.00 1016 N/A 0.00 0.00
10:56 am 10:56 Cloudy 67 19.4 64 17.8 91 91 WNW 8 13 30.06 1018 N/A 0.00 0.00
11:56 am 11:56 Cloudy 69 20.6 64 17.8 84 84 W 6 9 30.06 1018 N/A 0.00 0.00
12:19 pm 12:19 Partly Cloudy 70 21 64 18 83 83 VRB 5 7 29.97 1015 N/A 0.00 0.00
12:27 pm 12:27 Mostly Cloudy 72 22 64 18 78 78 WNW 8 13 29.97 1015 N/A 0.00 0.00
12:45 pm 12:45 Partly Cloudy 72 22 63 17 73 73 NW 8 13 29.97 1015 N/A 0.00 0.00
12:53 pm 12:53 Mostly Cloudy 72 22 63 17 73 73 NNW 8 13 29.97 1015 N/A 0.00 0.00
12:56 pm 12:56 Mostly Cloudy 71 21.7 64 17.8 79 79 NW 8 13 30.06 1018 N/A 0.00 0.00
1:32 pm 13:32 Partly Cloudy 73 23 63 17 69 69 NNW 6 9 29.97 1015 N/A 0.00 0.00
1:42 pm 13:42 Mostly Cloudy 73 23 63 17 69 69 W 8 13 29.97 1015 N/A 0.00 0.00
1:52 pm 13:52 Partly Cloudy 73 23 63 17 69 69 NW 9 15 29.97 1015 N/A 0.00 0.00
1:56 pm 13:56 Partly Cloudy 73 22.8 62 16.7 69 69 NW 9 15 30.06 1018 N/A 0.00 0.00
2:56 pm 14:56 Mostly Sunny 74 23.3 62 16.7 67 67 NNW 10 17 30.05 1018 N/A 0.00 0.00
3:56 pm 15:56 Mostly Sunny 75 23.9 62 16.7 64 64 NNW 9 15 30.06 1018 N/A 0.00 0.00
4:56 pm 16:56 Mostly Sunny 74 23.3 63 17.2 69 69 N 10 17 30.06 1018 N/A 0.00 0.00
5:56 pm 17:56 Sunny 74 23.3 62 16.7 67 67 N 5 7 30.06 1018 N/A 0.00 0.00
7:56 pm 19:56 Sunny 70 21.1 64 17.8 82 82 WSW 5 7 30.08 1019 N/A 0.00 0.00
8:56 pm 20:56 Clear 67 19.4 63 17.2 87 87 W 5 7 30.09 1019 N/A 0.00 0.00
9:56 pm 21:56 Clear 65 18.3 62 16.7 90 90 W 3 6 30.10 1019 N/A 0.00 0.00
10:56 pm 22:56 Mostly Clear 65 18.3 61 16.1 87 87 Calm 30.10 1019 N/A 0.00 0.00
11:56 pm 23:56 Clear 64 17.8 60 15.6 87 87 Calm 30.10 1019 N/A 0.00 0.00

Powered by AerisWeather